Live-Position
3D-Globus wird geladen...
Über Iridium 11
Group: 3 satellites
Beschreibung wird geladen...
Nächste Überflüge
Passes for default location (London). Set your location on the main map for personalized predictions.
Höhenverlauf
Loading altitude history...
No altitude history available
Zweizeiliger Elementsatz
1 24842U 97030G 26132.57153004 .00000330 00000-0 82954-4 0 9996
2 24842 86.4453 65.2609 0016421 80.0497 280.2559 14.48083842522745
Epoch: 12. Mai 2026 •
Age: 5 hours
Aktueller Status
Höhe 758.0 km
Geschwindigkeit 7.47 km/s
Subsatellitenpunkt -48.66°S,
86.4°W
Startdatum 18. Juni 1997
Alter 28.8 years
Typ communications
Technische Details
Klassifizierung Payload
Masse 662.00 kg
Trockenmasse 556.00 kg
Gesamtmasse 662.00 kg
Länge 3.50 m
Durchmesser 1.00 m
Spannweite 5.00 m
Form Box + 2 Pan
Hersteller MOTO/LMMS
Bus-Typ LM700
Phasenstatus In Orbit
Besitzer/Staat IRID/US
Most Searched
Loading...